This is the latest recevied weather packets stored in our database for station/object SP1BMW-13. If no packets are shown the sender has not sent any weather packets the latest 10 day(s).
| Time | Temp. | Humidity | Pressure | Rain* | Wind** | Luminosity | Snow |
|---|---|---|---|---|---|---|---|
| 1778218023 | 7.78° C | 70% | 1019.4 hPa | 0 mm | 0.45 m/s, 347° | 105 W/m² | - |
| 1778217969 | 7.78° C | 70% | 1019.3 hPa | 0 mm | 0.89 m/s, 304° | 103 W/m² | - |
| 1778217900 | 7.78° C | 71% | 1019.5 hPa | 0 mm | 1.34 m/s, 14° | 103 W/m² | - |
| 1778217840 | 7.78° C | 71% | 1019.2 hPa | 0 mm | 0 m/s | 102 W/m² | - |
| 1778217780 | 7.78° C | 72% | 1019.3 hPa | 0 mm | 0.45 m/s, 30° | 100 W/m² | - |
| 1778217720 | 7.78° C | 71% | 1019.4 hPa | 0 mm | 0.89 m/s, 338° | 100 W/m² | - |
| 1778217660 | 7.78° C | 71% | 1019.3 hPa | 0 mm | 0.89 m/s, 335° | 98 W/m² | - |
| 1778217600 | 7.78° C | 72% | 1019.5 hPa | 0 mm | 1.79 m/s, 324° | 96 W/m² | - |
| 1778217540 | 7.22° C | 73% | 1019.5 hPa | 0 mm | 0 m/s | 95 W/m² | - |
| 1778217480 | 7.22° C | 73% | 1019.5 hPa | 0 mm | 0 m/s | 93 W/m² | - |
| 1778217423 | 7.22° C | 72% | 1019.3 hPa | 0 mm | 0 m/s | 92 W/m² | - |
| 1778217360 | 7.78° C | 72% | 1019.3 hPa | 0 mm | 0.89 m/s, 16° | 90 W/m² | - |
| 1778217303 | 7.78° C | 72% | 1019.5 hPa | 0 mm | 1.79 m/s, 315° | 88 W/m² | - |
| 1778217240 | 7.78° C | 72% | 1019.5 hPa | 0 mm | 0.89 m/s, 328° | 86 W/m² | - |
| 1778217180 | 7.78° C | 72% | 1019.4 hPa | 0 mm | 0 m/s | 84 W/m² | - |
| 1778217120 | 7.22° C | 73% | 1019.5 hPa | 0 mm | 0.89 m/s, 25° | 83 W/m² | - |
| 1778217066 | 7.22° C | 73% | 1019.3 hPa | 0 mm | 0.45 m/s, 336° | 81 W/m² | - |
| 1778217003 | 7.22° C | 72% | 1019.3 hPa | 0 mm | 0.45 m/s, 336° | 80 W/m² | - |
| 1778216940 | 7.22° C | 72% | 1019.4 hPa | 0 mm | 0.45 m/s, 328° | 79 W/m² | - |
| 1778216880 | 7.22° C | 72% | 1019.3 hPa | 0 mm | 0.89 m/s, 344° | 77 W/m² | - |
| 1778216820 | 7.22° C | 73% | 1019.5 hPa | 0 mm | 0 m/s | 75 W/m² | - |
| 1778216760 | 7.22° C | 73% | 1019.3 hPa | 0 mm | 0 m/s | 73 W/m² | - |
| 1778216700 | 7.22° C | 73% | 1019.3 hPa | 0 mm | 0.89 m/s, 325° | 71 W/m² | - |
| 1778216654 | 7.22° C | 73% | 1019.4 hPa | 0 mm | 0.89 m/s, 302° | 69 W/m² | - |
| 1778216580 | 7.22° C | 73% | 1019.6 hPa | 0 mm | 0 m/s | 66 W/m² | - |
* Rain latest hour (hover to see other rain measurements)
** Current wind speed in m/s (hover to see current wind gust speed)